Regional Weather Roundup
Issued by NWS Upton, NY

Current Version | Previous Version | Graphics & Text | Print | Product List | Glossary Off
Versions: 1 2 3 4 5 6 7 8 9 10 11 12 13 14 15 16 17 18 19 20 21 22 23 24 25 26 27 28 29 30 31 32 33 34 35 36 37 38 39 40 41 42 43 44 45 46 47 48 49 50
000 ASUS41 KOKX 300618 RWROKX REGIONAL WEATHER ROUNDUP NATIONAL WEATHER SERVICE NEW YORK NY 200 AM EDT SAT MAY 30 2015 NOTE: "FAIR" INDICATES FEW OR NO CLOUDS BELOW 12,000 FEET WITH NO SIGNIFICANT WEATHER AND/OR OBSTRUCTIONS TO VISIBILITY. NYZ071-072-176-178-NJZ106-104-300700- NEW YORK CITY METRO AREA CITY SKY/WX TMP DP RH WIND PRES REMARKS CENTRAL PARK PTCLDY 68 60 75 CALM 30.23F LAGUARDIA APRT MOCLDY 67 60 78 S7 30.20F KENNEDY INTL MOCLDY 63 60 90 CALM 30.23F NEWARK/LIBERTY MOCLDY 68 62 81 SE6 30.20F BRNX BOT. GARD N/A 64 61 88 SE6 30.20F TETERBORO PTCLDY 68 61 78 S6 30.19F $$ NYZ177-179-078>081-300700- LONG ISLAND NEW YORK CITY SKY/WX TMP DP RH WIND PRES REMARKS FARMINGDALE PTCLDY 63 60 90 SW3 30.23S ISLIP CLOUDY 62 60 93 CALM 30.21F SHIRLEY CLOUDY 61 59 93 CALM 30.23S WESTHAMPTON FOG 60 60 100 W6 30.24S VSB 1/2 MONTAUK POINT N/A 59 58 96 CALM 30.24S $$ NYZ052-065-067-300700- HUDSON VALLEY CITY SKY/WX TMP DP RH WIND PRES REMARKS WHITE PLAINS PTCLDY 61 58 90 SE5 30.21S NEWBURGH CLEAR 63 59 88 CALM 30.21F MONTGOMERY PTCLDY 61 58 90 CALM 30.19F POUGHKEEPSIE CLEAR 63 58 83 CALM 30.18F ALBANY PTCLDY 69 57 65 S12 30.15F $$ NJZ001-105-106-008-010-013-015-019>022-104-300700- NEW JERSEY CITY SKY/WX TMP DP RH WIND PRES REMARKS NEWARK/LIBERTY MOCLDY 68 62 81 SE6 30.20F TETERBORO PTCLDY 68 61 78 S6 30.19F CALDWELL PTCLDY 65 58 78 CALM 30.20F MORRISTOWN MOCLDY 64 59 82 CALM 30.21S SOMERVILLE MOCLDY 63 58 83 CALM 30.19S SUSSEX MOCLDY 61 56 83 CALM 30.22S ANDOVER N/A 65 59 81 VRB3 30.20F TRENTON MOCLDY 67 62 84 S6 30.20F MILLVILLE PTCLDY 68 66 93 CALM 30.21S ATLANTIC CITY MOCLDY 68 64 87 S6 30.21S WRIGHTSTOWN MOCLDY 64 63 99 S6 30.19S TOMS RIVER PTCLDY N/A N/A N/A CALM 30.21F BELMAR PTCLDY 64 57 77 SW3 30.22S $$ PAZ047>061-062-071-300700- EASTERN PENNSYLVANIA CITY SKY/WX TMP DP RH WIND PRES REMARKS PHILADELPHIA MOCLDY 71 64 78 SW3 30.20F ALLENTOWN MOCLDY 72 64 76 S3 30.20S SCRANTON CLEAR 71 63 75 VRB6 30.17F $$ CTZ002-004>006-009-010-012-RIZ004-006-007-MAZ004-011-015-300700- SOUTHERN NEW ENGLAND IN CT CITY SKY/WX TMP DP RH WIND PRES REMARKS BRADLEY INTL PTCLDY 63 58 83 SE3 30.20F HARTFORD CLEAR 62 58 86 S6 30.21F DANBURY PTCLDY 59 55 87 N3 30.21F WTRBRY/OXFORD CLEAR 61 54 77 CALM 30.23F BRIDGEPORT CLEAR 63 60 90 S6 30.21F FOG MERIDEN CLEAR 58 55 90 CALM 30.21F FOG NEW HAVEN MOCLDY 60 58 92 E3 30.21F FOG CHESTER FOG 57 57 100 CALM 30.23F VSB<1/4 GROTON FOG 55 54 96 S6 30.22S VSB 1/4 WILLIMANTIC CLEAR 58 54 86 CALM 30.23S IN RI CITY SKY/WX TMP DP RH WIND PRES REMARKS PROVIDENCE FOG 58 57 97 S3 30.23S VSB 1/4 BLOCK ISLAND CLOUDY 57 54 88 SW8 30.24S VSB 3/4 WESTERLY FOG 57 57 100 S5 30.24S VSB 1/4 IN MA CITY SKY/WX TMP DP RH WIND PRES REMARKS BOSTON PTCLDY 60 57 89 CALM 30.21F WORCESTER CLEAR 59 53 80 SW9 30.22F WESTFIELD CLEAR 61 56 83 S5 30.20F PROVINCETOWN CLOUDY 57 55 94 S8 30.22F VSB 1 NANTUCKET FOG 60 58 92 S9 30.23F VSB 1/2 $$ ANZ330-335-338-340-345-350-353-355-300700- COASTAL MARINE OBSERVATIONS STATION/POSITION TIME SKY/WX TEMP WIND PRES VSBY WAVE AIR SEA DIR/SP/G HT/PER (UTC) (F) (DEG/KT/KT) (MB) (MI) (FT/S) NY HARB ENTRANCE 0550 63 62 CALM / 2 1023.2 2/ 9 4S FIRE IS 0503 60 N/A 2/ 7 20S FIRE ISLAND 0550 61 59 210/ 4/ 6 1023.3 2/ 9 GREAT SOUTH BAY 0530 64 69 260/ 6/ 6 N/A 23SW MTP 0550 57 56 300/ 4/ 6 1023.7 2/ 9 HUDSON CANYON NOT AVBL KINGS POINT 0500 64 58 150/ 2/ 3 1023.0 CENTRAL LI SOUND 0500 59 60 210/ 6/ 6 N/A EASTERN LI SOUND 0500 54 120/ 2/ 2 N/A ROBBINS REEF 0500 64 CALM 1022.6 $$ >>>>>>>>>>>>>>>>>>>>>>>>>>>> KEY <<<<<<<<<<<<<<<<<<<<<<<<<<< > < > SKY/WX - SKY CONDITION/PRESENT WEATHER < > TMP - TEMPERATURE IN FAHRENHEIT < > DP - DEWPOINT IN FAHRENHEIT < > RH - RELATIVE HUMIDITY IN PERCENT < > WIND - DIRECTION AND SPEED IN MPH < > PRES - MEAN SEA LEVEL PRESSURE IN INCHES OF HG < > WCI - WIND CHILL INDEX < > VSB - VISIBILITY IN MILES < > HX - HEAT INDEX < > TC - TEMPERATURE IN CELSIUS < > VRB - VARIABLE WIND DIRECTION < > < >>>>>>>>>>>>>>>>>>>>>>>>>>>> KEY <<<<<<<<<<<<<<<<<<<<<<<<<<<

USA.gov is the U.S. government's official web portal to all federal, state and local government web resources and services.